����,���ϕ���(m/s),���ϕ���,�ő�u�ԕ���(m/s),�ő啗��������,�C��(��),���x(%),10���Ԉړ��ώZ�J��(mm),1���Ԉړ��ώZ�J��(mm),���J��(mm),�݌v�J��(mm),����(���ώZ)(MJ/m2),����(���ώZ)(min),���n�C��(hPa),�C�ʋC��(hPa)
2020-03-30T00:00:00+09:00,1.6,�k�k��,4.4,�k,7.3,68.7,0,0,3.5,20,8.34,96,1007,1021.3
2020-03-30T00:01:00+09:00,1.7,�k�k��,4.4,�k,7.3,68.5,0,0,0,20,0,0,1007,1021.3
2020-03-30T00:02:00+09:00,1.8,�k�k��,4.4,�k,7.3,68.2,0,0,0,20,0,0,1007,1021.3
2020-03-30T00:03:00+09:00,1.8,�k,4.4,�k,7.3,67.9,0,0,0,20,0,0,1006.9,1021.2
2020-03-30T00:04:00+09:00,1.9,�k,4.4,�k,7.3,67.9,0,0,0,20,0,0,1006.9,1021.2
2020-03-30T00:05:00+09:00,1.9,�k,4.4,�k,7.3,68,0,0,0,20,0,0,1007,1021.3
2020-03-30T00:06:00+09:00,1.9,�k,4.4,�k,7.3,68.3,0,0,0,20,0,0,1007,1021.3
2020-03-30T00:07:00+09:00,1.9,�k,4,�k�k��,7.3,67.8,0,0,0,20,0,0,1007,1021.3
2020-03-30T00:08:00+09:00,1.9,�k,4,�k�k��,7.3,67.9,0,0,0,20,0,0,1007.1,1021.4
2020-03-30T00:09:00+09:00,1.8,�k,3.6,�k��,7.3,67.9,0,0,0,20,0,0,1007.1,1021.4
2020-03-30T00:10:00+09:00,1.8,�k,3.6,�k��,7.3,68,0,0,0,20,0,0,1007.1,1021.4
2020-03-30T00:11:00+09:00,1.6,�k,3.6,�k��,7.4,67.7,0,0,0,20,0,0,1007.1,1021.4
2020-03-30T00:12:00+09:00,1.5,�k,3.6,�k��,7.3,67.6,0,0,0,20,0,0,1007.1,1021.4
2020-03-30T00:13:00+09:00,1.5,�k,3.6,�k��,7.3,67.7,0,0,0,20,0,0,1007.1,1021.4
2020-03-30T00:14:00+09:00,1.3,�k,3.6,�k��,7.4,68,0,0,0,20,0,0,1007.1,1021.4
2020-03-30T00:15:00+09:00,1.3,�k,3.6,�k��,7.4,67.9,0,0,0,20,0,0,1007.1,1021.4
2020-03-30T00:16:00+09:00,1.3,�k,3.1,�k�k��,7.4,68.1,0,0,0,20,0,0,1007.1,1021.4
2020-03-30T00:17:00+09:00,1.2,�k,3.1,�k�k��,7.3,68,0,0,0,20,0,0,1007.1,1021.4
2020-03-30T00:18:00+09:00,1.2,�k,3.1,�k�k��,7.4,67.8,0,0,0,20,0,0,1007.1,1021.4
2020-03-30T00:19:00+09:00,1.3,�k,3.1,�k�k��,7.5,68.1,0,0,0,20,0,0,1007.1,1021.4
2020-03-30T00:20:00+09:00,1.4,�k,3.5,�k�k��,7.5,68.1,0,0,0,20,0,0,1007.1,1021.4
2020-03-30T00:21:00+09:00,1.4,�k,3.5,�k�k��,7.3,68,0,0,0,20,0,0,1007.1,1021.4
2020-03-30T00:22:00+09:00,1.5,�k,3.5,�k�k��,7.4,68.4,0,0,0,20,0,0,1007.1,1021.4
2020-03-30T00:23:00+09:00,1.6,�k,3.5,�k�k��,7.3,68.6,0,0,0,20,0,0,1007.1,1021.4
2020-03-30T00:24:00+09:00,1.8,�k,3.5,�k�k��,7.3,68.8,0,0,0,20,0,0,1007.1,1021.4
2020-03-30T00:25:00+09:00,1.9,�k�k��,3.5,�k�k��,7.4,69.5,0,0,0,20,0,0,1007.1,1021.4
2020-03-30T00:26:00+09:00,1.9,�k�k��,3.5,�k�k��,7.3,69.6,0,0,0,20,0,0,1007.1,1021.4
2020-03-30T00:27:00+09:00,2,�k�k��,3.5,�k�k��,7.3,69.2,0,0,0,20,0,0,1007.1,1021.4
2020-03-30T00:28:00+09:00,2,�k�k��,3.5,�k�k��,7.4,69.8,0,0,0,20,0,0,1007.1,1021.4
2020-03-30T00:29:00+09:00,2,�k�k��,3.5,�k�k��,7.4,69.7,0,0,0,20,0,0,1007.1,1021.4
2020-03-30T00:30:00+09:00,1.9,�k�k��,3.3,�k�k��,7.3,69.2,0,0,0,20,0,0,1007.1,1021.4
2020-03-30T00:31:00+09:00,1.9,�k�k��,3.3,�k�k��,7.2,68.5,0,0,0,20,0,0,1007,1021.3
2020-03-30T00:32:00+09:00,1.9,�k�k��,3.3,�k�k��,7.3,68.6,0,0,0,20,0,0,1007,1021.3
2020-03-30T00:33:00+09:00,1.8,�k�k��,3.3,�k�k��,7.2,68.7,0,0,0,20,0,0,1007,1021.3
2020-03-30T00:34:00+09:00,1.7,�k�k��,3,�k�k��,7.3,68.9,0,0,0,20,0,0,1007,1021.3
2020-03-30T00:35:00+09:00,1.6,�k�k��,2.9,�k,7.3,69,0,0,0,20,0,0,1007,1021.3
2020-03-30T00:36:00+09:00,1.6,�k�k��,2.9,�k,7.3,69.2,0,0,0,20,0,0,1007,1021.3
2020-03-30T00:37:00+09:00,1.5,�k�k��,2.9,�k,7.3,69.4,0,0,0,20,0,0,1007,1021.3
2020-03-30T00:38:00+09:00,1.5,�k�k��,2.9,�k,7.2,69.7,0,0,0,20,0,0,1006.9,1021.2
2020-03-30T00:39:00+09:00,1.7,�k�k��,2.9,�k,7.2,70,0,0,0,20,0,0,1006.9,1021.2
2020-03-30T00:40:00+09:00,1.7,�k�k��,2.9,�k�k��,7.3,70.8,0,0,0,20,0,0,1006.9,1021.2
2020-03-30T00:41:00+09:00,1.8,�k�k��,2.9,�k�k��,7,70.2,0,0,0,20,0,0,1006.9,1021.2
2020-03-30T00:42:00+09:00,1.8,�k�k��,2.9,�k�k��,7.2,70.7,0,0,0,20,0,0,1006.9,1021.2
2020-03-30T00:43:00+09:00,1.9,�k�k��,2.9,�k�k��,7.4,71.2,0,0,0,20,0,0,1006.9,1021.2
2020-03-30T00:44:00+09:00,1.9,�k�k��,2.9,�k�k��,7.4,71.1,0,0,0,20,0,0,1006.9,1021.2
2020-03-30T00:45:00+09:00,1.9,�k�k��,2.9,�k�k��,7.4,70.9,0,0,0,20,0,0,1006.9,1021.2
2020-03-30T00:46:00+09:00,2,�k�k��,3.2,�k�k��,7.3,70.7,0,0,0,20,0,0,1006.9,1021.2
2020-03-30T00:47:00+09:00,2,�k�k��,3.2,�k�k��,7.2,70.9,0,0,0,20,0,0,1006.9,1021.2
2020-03-30T00:48:00+09:00,2,�k�k��,3.2,�k�k��,7,70.9,0,0,0,20,0,0,1006.8,1021.1
2020-03-30T00:49:00+09:00,1.9,�k�k��,3.2,�k�k��,7.2,71.4,0,0,0,20,0,0,1006.8,1021.1
2020-03-30T00:50:00+09:00,1.8,�k�k��,3.2,�k�k��,7,71.6,0,0,0,20,0,0,1006.8,1021.1
2020-03-30T00:51:00+09:00,1.7,�k�k��,3.2,�k�k��,7.1,71.8,0,0,0,20,0,0,1006.8,1021.1
2020-03-30T00:52:00+09:00,1.7,�k�k��,3.2,�k�k��,7,71.9,0,0,0,20,0,0,1006.8,1021.1
2020-03-30T00:53:00+09:00,1.6,�k�k��,3.2,�k�k��,6.9,72.2,0,0,0,20,0,0,1006.8,1021.1
2020-03-30T00:54:00+09:00,1.5,�k�k��,3.2,�k�k��,7,72.9,0,0,0,20,0,0,1006.8,1021.1
2020-03-30T00:55:00+09:00,1.5,�k�k��,3.2,�k�k��,7.1,73.3,0,0,0,20,0,0,1006.8,1021.1
2020-03-30T00:56:00+09:00,1.3,�k�k��,2.6,�k,7,73.1,0,0,0,20,0,0,1006.8,1021.1
2020-03-30T00:57:00+09:00,1.2,�k�k��,2.1,�k,7.1,72.9,0,0,0,20,0,0,1006.8,1021.1
2020-03-30T00:58:00+09:00,1.1,�k,2,�k�k��,7.1,73,0,0,0,20,0,0,1006.8,1021.1
2020-03-30T00:59:00+09:00,1,�k,2,�k�k��,7.1,72.6,0,0,0,20,0,0,1006.8,1021.1
2020-03-30T01:00:00+09:00,0.9,�k,2,�k�k��,7.2,72.4,0,0,0,20,0,0,1006.8,1021.1
2020-03-30T01:01:00+09:00,0.8,�k,2,�k�k��,7.1,71.9,0,0,0,20,0,0,1006.8,1021.1
2020-03-30T01:02:00+09:00,0.7,�k,1.7,�k�k��,7,71.1,0,0,0,20,0,0,1006.8,1021.1
2020-03-30T01:03:00+09:00,0.6,�k,1.6,�k�k��,7,71.4,0,0,0,20,0,0,1006.8,1021.1
2020-03-30T01:04:00+09:00,0.6,�k,1.5,�k,7.1,71.7,0,0,0,20,0,0,1006.9,1021.2
2020-03-30T01:05:00+09:00,0.6,�k,1.4,�k,7,71.5,0,0,0,20,0,0,1006.9,1021.2
2020-03-30T01:06:00+09:00,0.6,�k,1.3,�k�k��,7,71.5,0,0,0,20,0,0,1006.9,1021.2
2020-03-30T01:07:00+09:00,0.7,�k,1.5,�k�k��,7.1,71.6,0,0,0,20,0,0,1006.9,1021.2
2020-03-30T01:08:00+09:00,0.7,�k,1.5,�k�k��,7.2,71.6,0,0,0,20,0,0,1006.9,1021.2
2020-03-30T01:09:00+09:00,0.8,�k�k��,1.6,�k�k��,7.1,71.2,0,0,0,20,0,0,1007,1021.3
2020-03-30T01:10:00+09:00,0.8,�k�k��,1.6,�k�k��,7.2,71,0,0,0,20,0,0,1007,1021.3
2020-03-30T01:11:00+09:00,0.9,�k�k��,1.6,�k�k��,7.1,70.9,0,0,0,20,0,0,1007.1,1021.4
2020-03-30T01:12:00+09:00,0.9,�k�k��,1.6,�k�k��,7.1,70.9,0,0,0,20,0,0,1007.1,1021.4
2020-03-30T01:13:00+09:00,1,�k�k��,1.6,�k�k��,7.1,71.4,0,0,0,20,0,0,1007.1,1021.4
2020-03-30T01:14:00+09:00,1,�k�k��,1.6,�k�k��,7.1,72,0,0,0,20,0,0,1007.1,1021.4
2020-03-30T01:15:00+09:00,1,�k�k��,1.6,�k�k��,7,72.5,0,0,0,20,0,0,1007.1,1021.4
2020-03-30T01:16:00+09:00,1,�k��,1.6,�k�k��,7.1,73,0,0,0,20,0,0,1007.1,1021.4
2020-03-30T01:17:00+09:00,0.9,�k��,1.6,�k�k��,7.1,72.8,0,0,0,20,0,0,1007,1021.3
2020-03-30T01:18:00+09:00,0.9,�k��,1.7,���k��,7.1,72.3,0,0,0,20,0,0,1007,1021.3
2020-03-30T01:19:00+09:00,1,�k��,1.7,���k��,7.2,72.3,0,0,0,20,0,0,1007,1021.3
2020-03-30T01:20:00+09:00,0.9,�k��,1.7,���k��,7.2,72.1,0,0,0,20,0,0,1007,1021.3
2020-03-30T01:21:00+09:00,1,�k��,1.7,���k��,7.3,72.2,0,0,0,20,0,0,1007.1,1021.4
2020-03-30T01:22:00+09:00,1,�k��,1.7,���k��,7.3,72.2,0,0,0,20,0,0,1007.1,1021.4
2020-03-30T01:23:00+09:00,0.9,�k��,1.7,���k��,7.3,71.7,0,0,0,20,0,0,1007.1,1021.4
2020-03-30T01:24:00+09:00,0.9,�k��,1.7,���k��,7.1,70.9,0,0,0,20,0,0,1007,1021.3
2020-03-30T01:25:00+09:00,0.9,�k��,1.7,���k��,7.1,70.6,0,0,0,20,0,0,1007,1021.3
2020-03-30T01:26:00+09:00,1,�k��,1.7,���k��,7.2,71.1,0,0,0,20,0,0,1007.1,1021.4
2020-03-30T01:27:00+09:00,1,�k��,1.7,���k��,7.1,71.1,0,0,0,20,0,0,1007.1,1021.4
2020-03-30T01:28:00+09:00,1,�k��,1.8,�k�k��,7.1,70.9,0,0,0,20,0,0,1007.1,1021.4
2020-03-30T01:29:00+09:00,1,�k��,1.8,�k�k��,7,70.8,0,0,0,20,0,0,1007.2,1021.5
2020-03-30T01:30:00+09:00,1,�k��,1.8,�k�k��,7,70.7,0,0,0,20,0,0,1007.2,1021.5
2020-03-30T01:31:00+09:00,1,�k��,1.8,�k�k��,7,70.9,0,0,0,20,0,0,1007.2,1021.5
2020-03-30T01:32:00+09:00,1.1,�k��,2.1,�k��,7.2,71.1,0,0,0,20,0,0,1007.2,1021.5
2020-03-30T01:33:00+09:00,1.2,�k��,2.1,�k��,7.1,70.9,0,0,0,20,0,0,1007.2,1021.5
2020-03-30T01:34:00+09:00,1.3,�k��,2.1,�k��,7.1,70.7,0,0,0,20,0,0,1007.2,1021.5
2020-03-30T01:35:00+09:00,1.3,�k��,2.1,�k��,7.2,71.2,0,0,0,20,0,0,1007.2,1021.5
2020-03-30T01:36:00+09:00,1.3,�k��,2.1,�k��,7.2,71,0,0,0,20,0,0,1007.2,1021.5
2020-03-30T01:37:00+09:00,1.4,�k��,2.1,�k��,7.2,70.8,0,0,0,20,0,0,1007.1,1021.4
2020-03-30T01:38:00+09:00,1.4,�k��,2.1,�k��,7.2,70.6,0,0,0,20,0,0,1007.1,1021.4
2020-03-30T01:39:00+09:00,1.4,�k��,2.1,�k��,7.1,70.1,0,0,0,20,0,0,1007.1,1021.4
2020-03-30T01:40:00+09:00,1.4,�k�k��,2.1,�k��,7.1,70.5,0,0,0,20,0,0,1007.1,1021.4
2020-03-30T01:41:00+09:00,1.4,�k�k��,2.1,�k��,7.2,70.8,0,0,0,20,0,0,1007.1,1021.4
2020-03-30T01:42:00+09:00,1.4,�k�k��,2.1,�k��,7.1,70.7,0,0,0,20,0,0,1007.1,1021.4
2020-03-30T01:43:00+09:00,1.4,�k�k��,2.1,�k��,7.1,70.8,0,0,0,20,0,0,1007.2,1021.5
2020-03-30T01:44:00+09:00,1.4,�k�k��,2.1,�k��,7.1,70.7,0,0,0,20,0,0,1007.1,1021.4
2020-03-30T01:45:00+09:00,1.3,�k��,2.1,�k��,7.3,71.3,0,0,0,20,0,0,1007.1,1021.4
2020-03-30T01:46:00+09:00,1.3,�k��,2.1,�k��,7.1,70.4,0,0,0,20,0,0,1007.1,1021.4
2020-03-30T01:47:00+09:00,1.3,�k��,2.1,�k��,7.2,71,0,0,0,20,0,0,1007.1,1021.4
2020-03-30T01:48:00+09:00,1.2,�k��,2.1,�k��,7.2,71,0,0,0,20,0,0,1007.1,1021.4
2020-03-30T01:49:00+09:00,1.2,�k��,1.8,�k��,7.2,70.6,0,0,0,20,0,0,1007.1,1021.4
2020-03-30T01:50:00+09:00,1.1,�k��,1.8,�k��,7.2,70.6,0,0,0,20,0,0,1007.1,1021.4
2020-03-30T01:51:00+09:00,1.1,�k��,1.8,�k��,7.1,70.5,0,0,0,20,0,0,1007.1,1021.4
2020-03-30T01:52:00+09:00,1.1,�k��,1.8,�k��,7.1,70.4,0,0,0,20,0,0,1007,1021.3
2020-03-30T01:53:00+09:00,1.1,�k��,1.4,�k��,7.2,70.7,0,0,0,20,0,0,1007,1021.3
2020-03-30T01:54:00+09:00,1.1,�k��,1.4,�k��,7.1,70.1,0,0,0,20,0,0,1007,1021.3
2020-03-30T01:55:00+09:00,1.1,�k��,1.4,�k��,7.2,70.3,0,0,0,20,0,0,1006.9,1021.2
2020-03-30T01:56:00+09:00,1.1,�k��,1.4,�k��,7.1,70.4,0,0,0,20,0,0,1006.9,1021.2
2020-03-30T01:57:00+09:00,1,�k��,1.4,�k��,7,69.9,0,0,0,20,0,0,1006.9,1021.2
2020-03-30T01:58:00+09:00,1,�k��,1.4,�k��,7,70.2,0,0,0,20,0,0,1006.9,1021.2
2020-03-30T01:59:00+09:00,1,�k��,1.6,�k��,7,70.5,0,0,0,20,0,0,1006.9,1021.2
2020-03-30T02:00:00+09:00,1,�k��,1.6,�k��,7,70.6,0,0,0,20,0,0,1006.9,1021.2
2020-03-30T02:01:00+09:00,1,�k��,1.6,�k��,7,70.4,0,0,0,20,0,0,1006.9,1021.2
2020-03-30T02:02:00+09:00,1,�k��,1.6,�k��,7,70.3,0,0,0,20,0,0,1006.9,1021.2
2020-03-30T02:03:00+09:00,0.9,�k��,1.6,�k��,7,70.5,0,0,0,20,0,0,1007,1021.3
2020-03-30T02:04:00+09:00,0.8,�k��,1.6,�k��,7,70.8,0,0,0,20,0,0,1006.9,1021.2
2020-03-30T02:05:00+09:00,0.8,�k��,1.6,�k��,6.8,70.9,0,0,0,20,0,0,1006.9,1021.2
2020-03-30T02:06:00+09:00,0.7,�k��,1.6,�k��,6.9,71.5,0,0,0,20,0,0,1006.9,1021.2
2020-03-30T02:07:00+09:00,0.7,�k��,1.6,�k��,6.8,71.8,0,0,0,20,0,0,1007,1021.3
2020-03-30T02:08:00+09:00,0.6,�k��,1.6,�k��,6.8,72.2,0,0,0,20,0,0,1007,1021.3
2020-03-30T02:09:00+09:00,0.5,�k��,1.6,�k��,6.8,71.8,0,0,0,20,0,0,1007.1,1021.4
2020-03-30T02:10:00+09:00,0.5,�k��,1.6,�k��,6.9,72.2,0,0,0,20,0,0,1007.1,1021.4
2020-03-30T02:11:00+09:00,0.4,�k��,1.2,�k��,6.9,72.6,0,0,0,20,0,0,1007.1,1021.4
2020-03-30T02:12:00+09:00,0.3,�k��,0.9,�k��,7.1,72.5,0,0,0,20,0,0,1007.2,1021.5
2020-03-30T02:13:00+09:00,0.3,�k��,0.8,�k��,7,71.9,0,0,0,20,0,0,1007.2,1021.5
2020-03-30T02:14:00+09:00,0.3,�k�k��,0.8,�k��,6.9,71.8,0,0,0,20,0,0,1007.2,1021.5
2020-03-30T02:15:00+09:00,0.3,�k�k��,0.7,�k�k��,6.8,71.8,0,0,0,20,0,0,1007.2,1021.5
2020-03-30T02:16:00+09:00,0.3,�k,0.7,�k�k��,6.9,72.4,0,0,0,20,0,0,1007.2,1021.5
2020-03-30T02:17:00+09:00,0.3,�k,0.7,�k�k��,6.9,72.8,0,0,0,20,0,0,1007.1,1021.4
2020-03-30T02:18:00+09:00,0.3,�k,0.8,�k,6.9,73.3,0,0,0,20,0,0,1007.2,1021.5
2020-03-30T02:19:00+09:00,0.3,�k�k��,0.9,�k�k��,7,73.9,0,0,0,20,0,0,1007.2,1021.5
2020-03-30T02:20:00+09:00,0.3,�k,1,�k�k��,7,74.1,0,0,0,20,0,0,1007.2,1021.5
2020-03-30T02:21:00+09:00,0.3,�k,1,�k�k��,7,74,0,0,0,20,0,0,1007.2,1021.5
2020-03-30T02:22:00+09:00,0.4,�k,1,�k�k��,6.9,74.2,0,0,0,20,0,0,1007.2,1021.5
2020-03-30T02:23:00+09:00,0.4,�k,1,�k�k��,6.9,74.6,0,0,0,20,0,0,1007.2,1021.5
2020-03-30T02:24:00+09:00,0.5,�k,1.2,�k��,7,74.8,0,0,0,20,0,0,1007.2,1021.5
2020-03-30T02:25:00+09:00,0.5,�k,1.2,�k��,7,75.2,0,0,0,20,0,0,1007.2,1021.5
2020-03-30T02:26:00+09:00,0.6,�k,1.2,�k��,7,75,0,0,0,20,0,0,1007.2,1021.5
2020-03-30T02:27:00+09:00,0.6,�k,1.2,�k��,6.9,74.6,0,0,0,20,0,0,1007.2,1021.5
2020-03-30T02:28:00+09:00,0.7,�k�k��,1.3,���k��,6.9,75,0,0,0,20,0,0,1007.2,1021.5
2020-03-30T02:29:00+09:00,0.7,�k�k��,1.3,���k��,6.9,75.1,0,0,0,20,0,0,1007.3,1021.6
2020-03-30T02:30:00+09:00,0.7,�k��,1.3,���k��,6.9,75.3,0,0,0,20,0,0,1007.2,1021.5
2020-03-30T02:31:00+09:00,0.7,�k��,1.3,���k��,6.9,75.4,0,0,0,20,0,0,1007.2,1021.5
2020-03-30T02:32:00+09:00,0.7,�k��,1.3,���k��,7,75.4,0,0,0,20,0,0,1007.3,1021.6
2020-03-30T02:33:00+09:00,0.7,�k��,1.3,���k��,7.1,75.2,0,0,0,20,0,0,1007.3,1021.6
2020-03-30T02:34:00+09:00,0.7,�k��,1.3,���k��,6.9,74.8,0,0,0,20,0,0,1007.2,1021.5
2020-03-30T02:35:00+09:00,0.6,�k��,1.3,���k��,6.8,74.2,0,0,0,20,0,0,1007.2,1021.5
2020-03-30T02:36:00+09:00,0.5,�k��,1.3,���k��,6.8,74.5,0,0,0,20,0,0,1007.2,1021.5
2020-03-30T02:37:00+09:00,0.5,�k�k��,1.3,���k��,6.7,74.5,0,0,0,20,0,0,1007.2,1021.5
2020-03-30T02:38:00+09:00,0.5,�k�k��,1,�k,6.8,74.6,0,0,0,20,0,0,1007.2,1021.5
2020-03-30T02:39:00+09:00,0.5,�k,1,�k,6.8,75.3,0,0,0,20,0,0,1007.2,1021.5
2020-03-30T02:40:00+09:00,0.4,�k,1,�k,6.7,75.6,0,0,0,20,0,0,1007.2,1021.5
2020-03-30T02:41:00+09:00,0.4,�k,1,�k,6.8,76,0,0,0,20,0,0,1007.1,1021.4
2020-03-30T02:42:00+09:00,0.4,�k�k��,1,�k,7,76.2,0,0,0,20,0,0,1007.1,1021.4
2020-03-30T02:43:00+09:00,0.4,�k�k��,1,�k��,6.9,75.7,0,0,0,20,0,0,1007.1,1021.4
2020-03-30T02:44:00+09:00,0.4,�k�k��,1,�k��,6.8,75.7,0,0,0,20,0,0,1007.1,1021.4
2020-03-30T02:45:00+09:00,0.5,�k�k��,1,�k��,6.8,76.1,0,0,0,20,0,0,1007.1,1021.4
2020-03-30T02:46:00+09:00,0.5,�k��,1,�k��,6.9,76.5,0,0,0,20,0,0,1007.1,1021.4
2020-03-30T02:47:00+09:00,0.5,�k�k��,1,�k��,6.8,76.1,0,0,0,20,0,0,1007,1021.3
2020-03-30T02:48:00+09:00,0.6,�k��,1,�k��,6.8,76.6,0,0,0,20,0,0,1007,1021.3
2020-03-30T02:49:00+09:00,0.6,�k��,1,�k��,6.9,77.1,0,0,0,20,0,0,1006.9,1021.2
2020-03-30T02:50:00+09:00,0.6,�k��,1.1,�k��,6.9,77.3,0,0,0,20,0,0,1006.9,1021.2
2020-03-30T02:51:00+09:00,0.7,�k��,1.2,�k�k��,7,77.4,0,0,0,20,0,0,1006.9,1021.2
2020-03-30T02:52:00+09:00,0.7,�k��,1.6,�k�k��,7,77.5,0,0,0,20,0,0,1006.8,1021.1
2020-03-30T02:53:00+09:00,0.8,�k��,1.6,�k�k��,6.8,76.8,0,0,0,20,0,0,1006.9,1021.2
2020-03-30T02:54:00+09:00,0.8,�k�k��,1.6,�k�k��,6.7,77.1,0,0,0,20,0,0,1006.9,1021.2
2020-03-30T02:55:00+09:00,0.8,�k�k��,1.6,�k�k��,6.7,77.5,0,0,0,20,0,0,1006.9,1021.2
2020-03-30T02:56:00+09:00,0.7,�k�k��,1.6,�k�k��,6.7,77.9,0,0,0,20,0,0,1006.9,1021.2
2020-03-30T02:57:00+09:00,0.8,�k�k��,1.6,�k�k��,6.7,78.3,0,0,0,20,0,0,1006.8,1021.1
2020-03-30T02:58:00+09:00,0.8,�k�k��,1.8,�k�k��,6.6,78.7,0,0,0,20,0,0,1006.8,1021.1
2020-03-30T02:59:00+09:00,0.9,�k�k��,2,�k��,6.7,78.9,0,0,0,20,0,0,1006.8,1021.1
2020-03-30T03:00:00+09:00,1,�k�k��,2,�k��,6.9,79.5,0,0,0,20,0,0,1006.8,1021.1
2020-03-30T03:01:00+09:00,0.9,�k�k��,2,�k��,7,79.4,0,0,0,20,0,0,1006.9,1021.2
2020-03-30T03:02:00+09:00,0.9,�k�k��,2,�k��,6.8,78.6,0,0,0,20,0,0,1006.9,1021.2
2020-03-30T03:03:00+09:00,0.8,�k�k��,2,�k��,6.8,78.7,0,0,0,20,0,0,1006.9,1021.2
2020-03-30T03:04:00+09:00,0.8,�k�k��,2,�k��,6.7,79.1,0,0,0,20,0,0,1006.9,1021.2
2020-03-30T03:05:00+09:00,0.8,�k,2,�k��,6.7,79.5,0,0,0,20,0,0,1006.9,1021.2
2020-03-30T03:06:00+09:00,0.9,�k,2,�k��,6.6,79.2,0,0,0,20,0,0,1006.9,1021.2
2020-03-30T03:07:00+09:00,0.8,�k,2,�k��,6.6,80,0,0,0,20,0,0,1006.8,1021.1
2020-03-30T03:08:00+09:00,0.8,�k,2,�k��,6.6,80.1,0,0,0,20,0,0,1006.8,1021.1
2020-03-30T03:09:00+09:00,0.8,�k,1.9,���k��,6.7,80.6,0,0,0,20,0,0,1006.8,1021.1
2020-03-30T03:10:00+09:00,0.8,�k,1.9,���k��,6.7,80.8,0,0,0,20,0,0,1006.8,1021.1
2020-03-30T03:11:00+09:00,0.9,�k,1.9,���k��,6.6,80.1,0,0,0,20,0,0,1006.8,1021.1
2020-03-30T03:12:00+09:00,0.9,�k,1.9,���k��,6.7,79.8,0,0,0,20,0,0,1006.8,1021.1
2020-03-30T03:13:00+09:00,1,�k�k��,1.9,���k��,6.6,79.7,0,0,0,20,0,0,1006.8,1021.1
2020-03-30T03:14:00+09:00,1.1,�k�k��,1.9,���k��,6.6,79.7,0,0,0,20,0,0,1006.9,1021.2
2020-03-30T03:15:00+09:00,1.1,�k�k��,1.9,���k��,6.7,79.8,0,0,0,20,0,0,1006.8,1021.1
2020-03-30T03:16:00+09:00,1.1,�k�k��,1.9,���k��,6.6,79.6,0,0,0,20,0,0,1006.9,1021.2
2020-03-30T03:17:00+09:00,1,�k�k��,1.9,���k��,6.7,79.6,0,0,0,20,0,0,1006.9,1021.2
2020-03-30T03:18:00+09:00,0.9,�k�k��,1.9,���k��,6.7,79.8,0,0,0,20,0,0,1006.9,1021.2
2020-03-30T03:19:00+09:00,0.9,�k�k��,1.6,�k��,6.7,79.7,0,0,0,20,0,0,1007,1021.3
2020-03-30T03:20:00+09:00,0.8,�k,1.7,�k��,6.5,79.2,0,0,0,20,0,0,1007,1021.3
2020-03-30T03:21:00+09:00,0.8,�k,1.7,�k��,6.6,79.5,0,0,0,20,0,0,1006.9,1021.2
2020-03-30T03:22:00+09:00,0.8,�k,1.7,�k��,6.6,79.1,0,0,0,20,0,0,1006.9,1021.2
2020-03-30T03:23:00+09:00,0.8,�k,1.9,�k,6.7,79.4,0,0,0,20,0,0,1006.9,1021.2
2020-03-30T03:24:00+09:00,0.7,�k,1.9,�k,6.6,79,0,0,0,20,0,0,1006.9,1021.2
2020-03-30T03:25:00+09:00,0.6,�k�k��,1.9,�k,6.6,79,0,0,0,20,0,0,1006.9,1021.2
2020-03-30T03:26:00+09:00,0.6,�k�k��,1.9,�k,6.6,79,0,0,0,20,0,0,1006.8,1021.1
2020-03-30T03:27:00+09:00,0.7,�k�k��,1.9,�k,6.6,78.9,0,0,0,20,0,0,1006.8,1021.1
2020-03-30T03:28:00+09:00,0.7,�k�k��,1.9,�k,6.7,79.2,0,0,0,20,0,0,1006.8,1021.1
2020-03-30T03:29:00+09:00,0.8,�k,2,�k�k��,6.7,78.7,0,0,0,20,0,0,1006.8,1021.1
2020-03-30T03:30:00+09:00,0.8,�k,2,�k�k��,6.8,78.6,0,0,0,20,0,0,1006.8,1021.1
2020-03-30T03:31:00+09:00,0.9,�k,2.2,�k,6.7,77.8,0,0,0,20,0,0,1006.8,1021.1
2020-03-30T03:32:00+09:00,0.8,�k,2.2,�k,7,78.2,0,0,0,20,0,0,1006.8,1021.1
2020-03-30T03:33:00+09:00,0.8,�k,2.2,�k,6.7,77.4,0,0,0,20,0,0,1006.8,1021.1
2020-03-30T03:34:00+09:00,0.9,�k,2.2,�k,6.8,77.6,0,0,0,20,0,0,1006.7,1021
2020-03-30T03:35:00+09:00,0.9,�k,2.2,�k,6.5,77.6,0,0,0,20,0,0,1006.8,1021.1
2020-03-30T03:36:00+09:00,0.9,�k,2.2,�k,6.4,77.6,0,0,0,20,0,0,1006.7,1021
2020-03-30T03:37:00+09:00,0.8,�k,2.2,�k,6.5,78.5,0,0,0,20,0,0,1006.7,1021
2020-03-30T03:38:00+09:00,0.9,�k,2.5,�k��,6.7,79.3,0,0,0,20,0,0,1006.7,1021
2020-03-30T03:39:00+09:00,1,�k,2.7,�k�k��,6.8,79.5,0,0,0,20,0,0,1006.7,1021
2020-03-30T03:40:00+09:00,1,�k,2.7,�k�k��,6.8,79.1,0,0,0,20,0,0,1006.7,1021
2020-03-30T03:41:00+09:00,1.1,�k�k��,2.7,�k�k��,6.7,79,0,0,0,20,0,0,1006.7,1021
2020-03-30T03:42:00+09:00,1.2,�k�k��,2.9,�k��,6.6,79.4,0,0,0,20,0,0,1006.7,1021
2020-03-30T03:43:00+09:00,1.4,�k�k��,3.2,�k�k��,6.8,79.9,0,0,0,20,0,0,1006.8,1021.1
2020-03-30T03:44:00+09:00,1.5,�k�k��,3.2,�k�k��,6.7,80,0,0,0,20,0,0,1006.8,1021.1
2020-03-30T03:45:00+09:00,1.6,�k��,3.2,�k�k��,6.6,79.6,0,0,0,20,0,0,1006.8,1021.1
2020-03-30T03:46:00+09:00,1.7,�k�k��,3.2,�k�k��,6.7,80.2,0,0,0,20,0,0,1006.8,1021.1
2020-03-30T03:47:00+09:00,1.9,�k�k��,3.2,�k�k��,6.8,80.6,0,0,0,20,0,0,1006.9,1021.2
2020-03-30T03:48:00+09:00,1.9,�k�k��,3.2,�k�k��,6.8,80.5,0,0,0,20,0,0,1006.8,1021.1
2020-03-30T03:49:00+09:00,2,�k�k��,3.3,�k��,6.7,79.6,0,0,0,20,0,0,1006.8,1021.1
2020-03-30T03:50:00+09:00,2,�k�k��,3.3,�k��,6.8,79.3,0,0,0,20,0,0,1006.8,1021.1
2020-03-30T03:51:00+09:00,2,�k�k��,3.5,�k�k��,6.8,79.1,0,0,0,20,0,0,1006.8,1021.1
2020-03-30T03:52:00+09:00,2.1,�k�k��,4.1,�k,6.7,78,0,0,0,20,0,0,1006.8,1021.1
2020-03-30T03:53:00+09:00,2.1,�k�k��,4.1,�k,6.6,77.5,0,0,0,20,0,0,1006.8,1021.1
2020-03-30T03:54:00+09:00,2.1,�k��,4.1,�k,6.6,77.6,0,0,0,20,0,0,1006.8,1021.1
2020-03-30T03:55:00+09:00,2.2,�k��,4.1,�k,6.6,77.8,0,0,0,20,0,0,1006.8,1021.1
2020-03-30T03:56:00+09:00,2.3,�k��,4.1,�k,6.6,78.1,0,0,0,20,0,0,1006.8,1021.1
2020-03-30T03:57:00+09:00,2.3,�k��,4.1,�k,6.6,78.6,0,0,0,20,0,0,1006.8,1021.1
2020-03-30T03:58:00+09:00,2.3,�k��,4.1,�k,6.7,79,0,0,0,20,0,0,1006.8,1021.1
2020-03-30T03:59:00+09:00,2.4,�k��,4.1,�k,6.6,78.6,0,0,0,20,0,0,1006.7,1021
2020-03-30T04:00:00+09:00,2.5,�k��,4.1,�k,6.6,78.9,0,0,0,20,0,0,1006.7,1021
2020-03-30T04:01:00+09:00,2.5,�k��,4.1,�k,6.5,78.9,0,0,0,20,0,0,1006.6,1020.9
2020-03-30T04:02:00+09:00,2.5,�k��,3.8,�k��,6.6,79.6,0,0,0,20,0,0,1006.6,1020.9
2020-03-30T04:03:00+09:00,2.7,�k��,4.1,�k��,6.6,79.5,0,0,0,20,0,0,1006.7,1021
2020-03-30T04:04:00+09:00,2.8,�k��,4.2,�k��,6.6,79.5,0,0,0,20,0,0,1006.7,1021
2020-03-30T04:05:00+09:00,2.8,�k��,4.2,�k��,6.6,79.8,0,0,0,20,0,0,1006.7,1021
2020-03-30T04:06:00+09:00,3,�k��,4.2,�k��,6.6,79.3,0,0,0,20,0,0,1006.7,1021
2020-03-30T04:07:00+09:00,3,�k��,4.2,�k��,6.6,78.7,0,0,0,20,0,0,1006.7,1021
2020-03-30T04:08:00+09:00,3,�k��,4.2,�k��,6.6,78,0,0,0,20,0,0,1006.7,1021
2020-03-30T04:09:00+09:00,3,�k��,4.2,�k��,6.6,77.6,0,0,0,20,0,0,1006.8,1021.1
2020-03-30T04:10:00+09:00,2.9,�k��,4.2,�k��,6.6,77.3,0,0,0,20,0,0,1006.8,1021.1
2020-03-30T04:11:00+09:00,2.9,�k��,4.2,�k��,6.6,76.5,0,0,0,20,0,0,1006.8,1021.1
2020-03-30T04:12:00+09:00,2.8,�k��,4.2,�k��,6.7,76.1,0,0,0,20,0,0,1006.7,1021
2020-03-30T04:13:00+09:00,2.7,�k��,4.2,�k��,6.7,76,0,0,0,20,0,0,1006.7,1021
2020-03-30T04:14:00+09:00,2.5,�k��,4,�k��,6.6,75.7,0,0,0,20,0,0,1006.7,1021
2020-03-30T04:15:00+09:00,2.3,�k��,4,�k��,6.5,76,0,0,0,20,0,0,1006.7,1021
2020-03-30T04:16:00+09:00,2.1,�k��,3.7,�k�k��,6.4,76.9,0,0,0,20,0,0,1006.7,1021
2020-03-30T04:17:00+09:00,2,�k��,3.7,�k�k��,6.3,78,0,0,0,20,0,0,1006.7,1021
2020-03-30T04:18:00+09:00,1.8,�k��,3.7,�k�k��,6.5,79,0,0,0,20,0,0,1006.7,1021
2020-03-30T04:19:00+09:00,1.7,�k��,3.7,�k�k��,6.4,79.4,0,0,0,20,0,0,1006.7,1021
2020-03-30T04:20:00+09:00,1.6,�k��,3.7,�k�k��,6.4,79.6,0,0,0,20,0,0,1006.7,1021
2020-03-30T04:21:00+09:00,1.5,�k��,2.8,�k��,6.4,79.8,0,0,0,20,0,0,1006.7,1021
2020-03-30T04:22:00+09:00,1.4,�k��,2.8,�k��,6.5,79.6,0,0,0,20,0,0,1006.7,1021
2020-03-30T04:23:00+09:00,1.4,�k��,2.7,�k��,6.4,79.4,0,0,0,20,0,0,1006.7,1021
2020-03-30T04:24:00+09:00,1.4,�k��,2.7,�k��,6.4,79.3,0,0,0,20,0,0,1006.8,1021.1
2020-03-30T04:25:00+09:00,1.4,�k��,2.7,�k��,6.3,78.4,0,0,0,20,0,0,1006.8,1021.1
2020-03-30T04:26:00+09:00,1.4,�k��,2.7,�k��,6.3,78.5,0,0,0,20,0,0,1006.9,1021.3
2020-03-30T04:27:00+09:00,1.4,�k��,2.7,�k��,6.5,79.1,0,0,0,20,0,0,1006.9,1021.2
2020-03-30T04:28:00+09:00,1.5,�k��,2.7,�k��,6.6,79.4,0,0,0,20,0,0,1006.9,1021.2
2020-03-30T04:29:00+09:00,1.5,�k��,2.7,�k��,6.4,78.6,0,0,0,20,0,0,1006.9,1021.2
2020-03-30T04:30:00+09:00,1.5,�k��,2.7,�k��,6.4,78.2,0,0,0,20,0,0,1006.9,1021.2
2020-03-30T04:31:00+09:00,1.6,�k��,2.7,�k��,6.4,78.4,0,0,0,20,0,0,1006.9,1021.2
2020-03-30T04:32:00+09:00,1.6,�k��,2.7,�k��,6.5,78.6,0,0,0,20,0,0,1006.9,1021.2
2020-03-30T04:33:00+09:00,1.7,�k��,2.7,�k��,6.5,77.5,0,0,0,20,0,0,1006.9,1021.2
2020-03-30T04:34:00+09:00,1.7,�k��,3,�k��,6.7,76.5,0,0,0,20,0,0,1007,1021.3
2020-03-30T04:35:00+09:00,1.9,�k��,3.5,�k��,6.7,75.2,0,0,0,20,0,0,1007,1021.3
2020-03-30T04:36:00+09:00,2,�k��,3.5,�k��,6.8,74.3,0,0,0,20,0,0,1007,1021.3
2020-03-30T04:37:00+09:00,2,�k��,3.5,�k��,6.8,73.7,0,0,0,20,0,0,1007,1021.3
2020-03-30T04:38:00+09:00,2.1,�k��,3.5,�k��,6.8,73,0,0,0,20,0,0,1007.1,1021.4
2020-03-30T04:39:00+09:00,2.1,�k��,3.5,�k��,6.7,72.8,0,0,0,20,0,0,1007.1,1021.4
2020-03-30T04:40:00+09:00,2.2,�k��,3.5,�k��,6.7,73.2,0,0,0,20,0,0,1007.2,1021.5
2020-03-30T04:41:00+09:00,2.2,�k��,3.5,�k��,6.8,73.4,0,0,0,20,0,0,1007.1,1021.4
2020-03-30T04:42:00+09:00,2.1,�k��,3.5,�k��,6.7,74,0,0,0,20,0,0,1007.1,1021.4
2020-03-30T04:43:00+09:00,2.1,�k��,3.5,�k��,6.7,74.4,0,0,0,20,0,0,1007,1021.3
2020-03-30T04:44:00+09:00,2,�k��,3.5,�k��,6.6,74.9,0,0,0,20,0,0,1007,1021.3
2020-03-30T04:45:00+09:00,2,�k�k��,3.2,�k��,6.7,76,0,0,0,20,0,0,1007,1021.3
2020-03-30T04:46:00+09:00,1.9,�k��,3.2,�k��,6.6,76.3,0,0,0,20,0,0,1007.1,1021.4
2020-03-30T04:47:00+09:00,1.9,�k��,3.2,�k��,6.5,76.4,0,0,0,20,0,0,1007.1,1021.4
2020-03-30T04:48:00+09:00,1.8,�k��,3,�k��,6.7,77.3,0,0,0,20,0,0,1007.1,1021.4
2020-03-30T04:49:00+09:00,1.8,�k��,3,�k��,6.6,77.3,0,0,0,20,0,0,1007.1,1021.4
2020-03-30T04:50:00+09:00,1.6,�k��,3,�k��,6.5,76.6,0,0,0,20,0,0,1007.1,1021.4
2020-03-30T04:51:00+09:00,1.6,�k��,3,�k��,6.4,76.5,0,0,0,20,0,0,1007.1,1021.4
2020-03-30T04:52:00+09:00,1.6,�k��,3,�k��,6.4,76.7,0,0,0,20,0,0,1007.2,1021.5
2020-03-30T04:53:00+09:00,1.6,�k��,3,�k��,6.5,77,0,0,0,20,0,0,1007.2,1021.5
2020-03-30T04:54:00+09:00,1.5,�k��,3,�k��,6.4,76.7,0,0,0,20,0,0,1007.2,1021.5
2020-03-30T04:55:00+09:00,1.5,�k��,3,�k��,6.5,76.5,0,0,0,20,0,0,1007.2,1021.5
2020-03-30T04:56:00+09:00,1.5,�k��,3,�k��,6.5,76.3,0,0,0,20,0,0,1007.2,1021.5
2020-03-30T04:57:00+09:00,1.6,�k��,3.1,�k��,6.5,75.7,0,0,0,0,0,0,1007.2,1021.5
2020-03-30T04:58:00+09:00,1.6,�k��,3.1,�k��,6.5,75.5,0,0,0,0,0,0,1007.2,1021.5
2020-03-30T04:59:00+09:00,1.6,���k��,3.1,�k��,6.6,75,0,0,0,0,0,0,1007.2,1021.5